Powrót do katalogu

COSMOS 1691

AktywnyNawigacjaPO
NORAD 16139·PAYLOAD·🇷🇺 Russia

Wystrzelony Oct 9, 1985 z Plesetsk Cosmodrome

Loading…

Następne Przeloty (najbliższe 24 godziny)

TLE

ŚwieżeSource: Space-Track

Epoka: Sep 14, 2026, 22:34 UTC

1 16139U 85094B   26257.94030292  .00000002  00000-0 -49675-4 0  9995
2 16139  82.6088 232.8677 0001256  66.7072 307.1263 12.62477205886562

Śledź COSMOS 1691 w czasie rzeczywistym z AllMySat

Download on the App Store